Wetterdaten: Woche 26.02.24 - 03.03.24 (KW9)
Datum Zeit Temp. I. Temp. A. Feuchte I. Feuchte A. Luftdruck Regen Wind Richtung Sonnenschein Solar Taupunkt Windchill Windböen
26.02.2024 00:00 21,5 °C 0,7 °C 52 % 92 % 1003,6 hPa 0,0 l/m² 0,1 km/h (0 Bft) W-SW 0,00 h 0 W/m² -0,5 °C 0,7 °C 0,3 km/h (0 Bft)
26.02.2024 01:00 21,4 °C -0,1 °C 52 % 92 % 1003,2 hPa 0,0 l/m² 0,0 km/h (0 Bft) W-SW 0,00 h 0 W/m² -1,2 °C -0,1 °C 0,0 km/h (0 Bft)
26.02.2024 02:00 21,4 °C -0,5 °C 52 % 93 % 1002,8 hPa 0,0 l/m² 0,0 km/h (0 Bft) W-SW 0,00 h 0 W/m² -1,5 °C -0,5 °C 0,0 km/h (0 Bft)
26.02.2024 03:00 21,5 °C -0,8 °C 52 % 93 % 1002,8 hPa 0,0 l/m² 0,4 km/h (0 Bft) W-SW 0,00 h 0 W/m² -1,8 °C -0,8 °C 0,9 km/h (0 Bft)
26.02.2024 04:00 21,6 °C -1,3 °C 52 % 93 % 1003,1 hPa 0,0 l/m² 0,0 km/h (0 Bft) W-SW 0,00 h 0 W/m² -2,3 °C -1,3 °C 0,0 km/h (0 Bft)
26.02.2024 05:00 21,6 °C -1,1 °C 51 % 93 % 1003,2 hPa 0,0 l/m² 0,0 km/h (0 Bft) W-SW 0,00 h 0 W/m² -2,1 °C -1,1 °C 0,0 km/h (0 Bft)
26.02.2024 06:00 21,6 °C -1,2 °C 51 % 93 % 1003,4 hPa 0,0 l/m² 0,0 km/h (0 Bft) W-SW 0,00 h 0 W/m² -2,2 °C -1,2 °C 0,0 km/h (0 Bft)
26.02.2024 07:00 21,6 °C -0,8 °C 49 % 94 % 1003,7 hPa 0,0 l/m² 0,1 km/h (0 Bft) W-SW 0,27 h 34 W/m² -1,7 °C -0,8 °C 0,3 km/h (0 Bft)
26.02.2024 08:00 21,7 °C 0,7 °C 49 % 94 % 1004,1 hPa 0,2 l/m² 0,6 km/h (0 Bft) W-SW 1,00 h 92 W/m² -0,1 °C 0,7 °C 1,3 km/h (1 Bft)
26.02.2024 09:00 21,9 °C 4,5 °C 49 % 92 % 1004,2 hPa 0,0 l/m² 1,2 km/h (1 Bft) W-SW 1,00 h 165 W/m² 3,4 °C 4,5 °C 2,8 km/h (1 Bft)
26.02.2024 10:00 21,9 °C 6,3 °C 49 % 87 % 1004,4 hPa 0,0 l/m² 3,3 km/h (1 Bft) NO 1,00 h 188 W/m² 4,2 °C 6,2 °C 6,9 km/h (2 Bft)
26.02.2024 11:00 21,9 °C 7,1 °C 50 % 85 % 1004,5 hPa 0,0 l/m² 5,1 km/h (1 Bft) N 1,00 h 178 W/m² 4,8 °C 6,8 °C 9,0 km/h (2 Bft)
26.02.2024 12:00 21,8 °C 8,3 °C 50 % 82 % 1004,4 hPa 0,0 l/m² 6,3 km/h (2 Bft) N 1,00 h 193 W/m² 5,4 °C 7,8 °C 11,0 km/h (2 Bft)
26.02.2024 13:00 21,8 °C 9,8 °C 50 % 77 % 1004,6 hPa 0,0 l/m² 4,8 km/h (1 Bft) N 1,00 h 228 W/m² 6,0 °C 9,6 °C 9,2 km/h (2 Bft)
26.02.2024 14:00 21,9 °C 11,1 °C 50 % 73 % 1005,2 hPa 0,0 l/m² 7,2 km/h (2 Bft) NO 0,98 h 285 W/m² 6,3 °C 10,1 °C 12,8 km/h (3 Bft)
26.02.2024 15:00 21,9 °C 10,7 °C 50 % 74 % 1005,5 hPa 0,0 l/m² 7,1 km/h (2 Bft) N-NO 1,02 h 119 W/m² 6,3 °C 9,9 °C 13,1 km/h (3 Bft)
26.02.2024 16:00 21,8 °C 10,3 °C 49 % 75 % 1005,9 hPa 0,0 l/m² 7,3 km/h (2 Bft) N 0,93 h 81 W/m² 6,0 °C 9,5 °C 12,5 km/h (2 Bft)
26.02.2024 17:00 21,7 °C 9,3 °C 49 % 77 % 1006,9 hPa 0,0 l/m² 7,3 km/h (2 Bft) N 0,00 h 18 W/m² 5,5 °C 8,6 °C 11,9 km/h (2 Bft)
26.02.2024 18:00 21,6 °C 8,0 °C 50 % 81 % 1007,9 hPa 0,0 l/m² 6,3 km/h (2 Bft) N 0,00 h 0 W/m² 4,9 °C 7,7 °C 9,8 km/h (2 Bft)
26.02.2024 19:00 21,4 °C 7,6 °C 50 % 84 % 1008,6 hPa 0,0 l/m² 7,4 km/h (2 Bft) N-NW 0,00 h 0 W/m² 5,1 °C 6,7 °C 11,6 km/h (2 Bft)
26.02.2024 20:00 21,4 °C 7,6 °C 51 % 84 % 1009,3 hPa 0,0 l/m² 5,9 km/h (2 Bft) N 0,00 h 0 W/m² 5,0 °C 7,3 °C 9,6 km/h (2 Bft)
26.02.2024 21:00 21,6 °C 7,1 °C 52 % 85 % 1009,9 hPa 0,0 l/m² 3,0 km/h (1 Bft) N-NW 0,00 h 0 W/m² 4,7 °C 7,1 °C 5,8 km/h (2 Bft)
26.02.2024 22:00 21,7 °C 6,5 °C 52 % 84 % 1010,5 hPa 0,0 l/m² 3,9 km/h (1 Bft) N 0,00 h 0 W/m² 4,1 °C 6,5 °C 7,4 km/h (2 Bft)
26.02.2024 23:00 21,5 °C 5,4 °C 52 % 87 % 1011,2 hPa 0,0 l/m² 3,3 km/h (1 Bft) W 0,00 h 0 W/m² 3,4 °C 5,4 °C 5,7 km/h (2 Bft)
27.02.2024 00:00 21,4 °C 4,1 °C 52 % 91 % 1011,7 hPa 0,0 l/m² 2,6 km/h (1 Bft) W 0,00 h 0 W/m² 2,7 °C 4,1 °C 4,6 km/h (1 Bft)
27.02.2024 01:00 21,4 °C 5,1 °C 52 % 88 % 1012,2 hPa 0,0 l/m² 4,8 km/h (1 Bft) W-NW 0,00 h 0 W/m² 3,3 °C 4,6 °C 9,6 km/h (2 Bft)
27.02.2024 02:00 21,4 °C 4,7 °C 52 % 87 % 1012,7 hPa 0,0 l/m² 4,3 km/h (1 Bft) NW 0,00 h 0 W/m² 2,7 °C 4,7 °C 9,1 km/h (2 Bft)
27.02.2024 03:00 21,4 °C 4,1 °C 52 % 87 % 1012,6 hPa 0,0 l/m² 6,7 km/h (2 Bft) NW 0,00 h 0 W/m² 2,1 °C 3,4 °C 13,3 km/h (3 Bft)
27.02.2024 04:00 21,4 °C 3,7 °C 51 % 88 % 1013,2 hPa 0,0 l/m² 5,0 km/h (1 Bft) N-NW 0,00 h 0 W/m² 1,9 °C 3,5 °C 10,4 km/h (2 Bft)
27.02.2024 05:00 21,4 °C 3,4 °C 51 % 88 % 1013,5 hPa 0,0 l/m² 5,5 km/h (2 Bft) NW 0,00 h 0 W/m² 1,7 °C 3,2 °C 11,4 km/h (2 Bft)
27.02.2024 06:00 21,4 °C 3,3 °C 50 % 90 % 1014,0 hPa 0,0 l/m² 8,4 km/h (2 Bft) NW 0,00 h 0 W/m² 1,8 °C 1,2 °C 15,6 km/h (3 Bft)
27.02.2024 07:00 21,3 °C 3,4 °C 49 % 90 % 1014,7 hPa 0,0 l/m² 4,7 km/h (1 Bft) W-NW 0,00 h 24 W/m² 1,9 °C 2,9 °C 10,0 km/h (2 Bft)
27.02.2024 08:00 21,3 °C 3,5 °C 50 % 90 % 1015,2 hPa 0,0 l/m² 7,4 km/h (2 Bft) NW 0,70 h 71 W/m² 2,0 °C 2,2 °C 14,9 km/h (3 Bft)
27.02.2024 09:00 21,4 °C 4,1 °C 50 % 88 % 1015,7 hPa 0,0 l/m² 11,5 km/h (2 Bft) NW 1,00 h 131 W/m² 2,3 °C 0,1 °C 19,1 km/h (3 Bft)
27.02.2024 10:00 21,4 °C 4,1 °C 50 % 88 % 1015,8 hPa 0,0 l/m² 12,4 km/h (2 Bft) N-NW 1,00 h 118 W/m² 2,3 °C -0,3 °C 20,4 km/h (4 Bft)
27.02.2024 11:00 21,3 °C 4,3 °C 50 % 88 % 1016,0 hPa 0,0 l/m² 14,6 km/h (3 Bft) N-NW 1,00 h 168 W/m² 2,5 °C -1,4 °C 23,2 km/h (4 Bft)
27.02.2024 12:00 21,3 °C 4,4 °C 50 % 88 % 1016,0 hPa 0,0 l/m² 15,7 km/h (3 Bft) NW 0,98 h 217 W/m² 2,7 °C -1,8 °C 25,0 km/h (4 Bft)
27.02.2024 13:00 21,4 °C 4,5 °C 50 % 88 % 1016,3 hPa 0,0 l/m² 12,5 km/h (2 Bft) NW 1,00 h 99 W/m² 2,7 °C 0,1 °C 20,2 km/h (4 Bft)
27.02.2024 14:00 21,4 °C 5,0 °C 50 % 88 % 1016,2 hPa 0,0 l/m² 13,9 km/h (3 Bft) NW 1,00 h 80 W/m² 3,2 °C -0,3 °C 21,4 km/h (4 Bft)
27.02.2024 15:00 21,4 °C 5,3 °C 50 % 87 % 1016,1 hPa 0,0 l/m² 11,4 km/h (2 Bft) N-NW 0,45 h 53 W/m² 3,4 °C 1,7 °C 19,0 km/h (3 Bft)
27.02.2024 16:00 21,3 °C 5,5 °C 50 % 87 % 1016,3 hPa 0,0 l/m² 7,8 km/h (2 Bft) N 0,03 h 35 W/m² 3,4 °C 4,1 °C 13,5 km/h (3 Bft)
27.02.2024 17:00 21,3 °C 5,4 °C 50 % 86 % 1016,6 hPa 0,0 l/m² 7,5 km/h (2 Bft) N-NW 0,00 h 14 W/m² 3,3 °C 4,3 °C 12,7 km/h (3 Bft)
27.02.2024 18:00 21,4 °C 5,3 °C 50 % 87 % 1017,2 hPa 0,0 l/m² 5,5 km/h (2 Bft) N-NW 0,00 h 0 W/m² 3,3 °C 5,0 °C 8,9 km/h (2 Bft)
27.02.2024 19:00 21,4 °C 5,2 °C 50 % 87 % 1017,6 hPa 0,0 l/m² 5,6 km/h (2 Bft) NW 0,00 h 0 W/m² 3,3 °C 4,7 °C 9,1 km/h (2 Bft)
27.02.2024 20:00 21,3 °C 4,9 °C 50 % 88 % 1018,2 hPa 0,0 l/m² 6,2 km/h (2 Bft) NW 0,00 h 0 W/m² 3,0 °C 4,3 °C 10,7 km/h (2 Bft)
27.02.2024 21:00 21,4 °C 4,7 °C 51 % 88 % 1018,5 hPa 0,0 l/m² 7,2 km/h (2 Bft) NW 0,00 h 0 W/m² 2,9 °C 3,7 °C 12,3 km/h (2 Bft)
27.02.2024 22:00 21,5 °C 4,6 °C 51 % 88 % 1018,7 hPa 0,0 l/m² 7,8 km/h (2 Bft) NW 0,00 h 0 W/m² 2,8 °C 3,2 °C 13,1 km/h (3 Bft)
27.02.2024 23:00 21,3 °C 4,4 °C 51 % 89 % 1018,9 hPa 0,0 l/m² 8,4 km/h (2 Bft) NW 0,00 h 0 W/m² 2,8 °C 2,6 °C 14,2 km/h (3 Bft)
28.02.2024 00:00 21,3 °C 4,3 °C 52 % 89 % 1019,0 hPa 0,0 l/m² 6,0 km/h (2 Bft) NW 0,00 h 0 W/m² 2,7 °C 3,7 °C 10,7 km/h (2 Bft)
28.02.2024 01:00 21,3 °C 4,2 °C 52 % 89 % 1019,2 hPa 0,0 l/m² 3,6 km/h (1 Bft) NW 0,00 h 0 W/m² 2,6 °C 4,2 °C 8,3 km/h (2 Bft)
28.02.2024 02:00 21,3 °C 4,0 °C 52 % 87 % 1019,3 hPa 0,0 l/m² 4,3 km/h (1 Bft) NW 0,00 h 0 W/m² 2,1 °C 3,8 °C 8,2 km/h (2 Bft)
28.02.2024 03:00 21,2 °C 3,7 °C 52 % 87 % 1019,5 hPa 0,0 l/m² 4,7 km/h (1 Bft) W-NW 0,00 h 0 W/m² 1,8 °C 3,5 °C 9,3 km/h (2 Bft)
28.02.2024 04:00 21,3 °C 3,4 °C 52 % 87 % 1019,7 hPa 0,0 l/m² 5,7 km/h (2 Bft) W 0,00 h 0 W/m² 1,4 °C 2,9 °C 9,7 km/h (2 Bft)
28.02.2024 05:00 21,3 °C 3,1 °C 51 % 87 % 1020,2 hPa 0,0 l/m² 4,3 km/h (1 Bft) W 0,00 h 0 W/m² 1,1 °C 2,9 °C 7,1 km/h (2 Bft)
28.02.2024 06:00 21,4 °C 2,8 °C 52 % 87 % 1020,7 hPa 0,0 l/m² 4,3 km/h (1 Bft) W-SW 0,00 h 0 W/m² 0,8 °C 2,6 °C 6,5 km/h (2 Bft)
28.02.2024 07:00 21,2 °C 2,7 °C 49 % 86 % 1021,3 hPa 0,0 l/m² 4,2 km/h (1 Bft) W 0,08 h 27 W/m² 0,5 °C 2,6 °C 7,0 km/h (2 Bft)
28.02.2024 08:00 21,3 °C 2,9 °C 49 % 83 % 1021,6 hPa 0,0 l/m² 3,2 km/h (1 Bft) W 1,00 h 111 W/m² 0,4 °C 2,8 °C 6,0 km/h (2 Bft)
28.02.2024 09:00 21,4 °C 3,2 °C 49 % 83 % 1022,1 hPa 0,0 l/m² 5,7 km/h (2 Bft) W-SW 1,02 h 203 W/m² 0,6 °C 2,7 °C 8,9 km/h (2 Bft)
28.02.2024 10:00 22,0 °C 4,1 °C 49 % 81 % 1022,3 hPa 0,0 l/m² 5,9 km/h (2 Bft) W-SW 1,00 h 420 W/m² 1,1 °C 3,5 °C 9,4 km/h (2 Bft)
28.02.2024 11:00 22,8 °C 5,5 °C 48 % 78 % 1022,5 hPa 0,0 l/m² 5,8 km/h (2 Bft) W 1,00 h 531 W/m² 1,9 °C 4,9 °C 9,8 km/h (2 Bft)
28.02.2024 12:00 23,2 °C 6,7 °C 47 % 73 % 1022,6 hPa 0,0 l/m² 4,7 km/h (1 Bft) W 1,00 h 545 W/m² 2,2 °C 6,5 °C 8,3 km/h (2 Bft)
28.02.2024 13:00 23,5 °C 7,7 °C 47 % 68 % 1022,4 hPa 0,0 l/m² 2,6 km/h (1 Bft) W 1,00 h 515 W/m² 2,1 °C 7,7 °C 4,9 km/h (1 Bft)
28.02.2024 14:00 23,5 °C 8,2 °C 47 % 66 % 1022,0 hPa 0,0 l/m² 0,9 km/h (0 Bft) W-SW 1,00 h 425 W/m² 2,1 °C 8,2 °C 2,1 km/h (1 Bft)
28.02.2024 15:00 23,1 °C 8,6 °C 48 % 67 % 1021,8 hPa 0,0 l/m² 0,9 km/h (0 Bft) O 1,00 h 289 W/m² 2,8 °C 8,6 °C 2,3 km/h (1 Bft)
28.02.2024 16:00 22,8 °C 7,9 °C 47 % 69 % 1021,8 hPa 0,0 l/m² 3,8 km/h (1 Bft) S-SO 0,98 h 145 W/m² 2,5 °C 7,8 °C 6,0 km/h (2 Bft)
28.02.2024 17:00 22,5 °C 6,1 °C 47 % 75 % 1021,9 hPa 0,0 l/m² 0,9 km/h (0 Bft) S-SO 0,00 h 22 W/m² 2,0 °C 6,1 °C 1,8 km/h (1 Bft)
28.02.2024 18:00 22,3 °C 3,7 °C 49 % 81 % 1022,2 hPa 0,0 l/m² 0,0 km/h (0 Bft) S-SO 0,00 h 0 W/m² 0,8 °C 3,7 °C 0,4 km/h (0 Bft)
28.02.2024 19:00 22,2 °C 2,6 °C 48 % 85 % 1022,3 hPa 0,0 l/m² 0,0 km/h (0 Bft) S-SO 0,00 h 0 W/m² 0,3 °C 2,6 °C 0,0 km/h (0 Bft)
28.02.2024 20:00 22,2 °C 2,1 °C 49 % 88 % 1022,3 hPa 0,0 l/m² 0,0 km/h (0 Bft) S-SO 0,00 h 0 W/m² 0,3 °C 2,1 °C 0,0 km/h (0 Bft)
28.02.2024 21:00 22,2 °C 1,2 °C 48 % 89 % 1022,2 hPa 0,0 l/m² 0,0 km/h (0 Bft) S-SO 0,00 h 0 W/m² -0,4 °C 1,2 °C 0,0 km/h (0 Bft)
28.02.2024 22:00 22,1 °C 0,5 °C 50 % 90 % 1021,9 hPa 0,0 l/m² 0,0 km/h (0 Bft) S-SO 0,00 h 0 W/m² -0,9 °C 0,5 °C 0,0 km/h (0 Bft)
28.02.2024 23:00 22,0 °C -0,1 °C 51 % 91 % 1021,7 hPa 0,0 l/m² 0,0 km/h (0 Bft) S-SO 0,00 h 0 W/m² -1,4 °C -0,1 °C 0,1 km/h (0 Bft)
29.02.2024 00:00 22,0 °C -0,8 °C 51 % 91 % 1021,5 hPa 0,0 l/m² 0,1 km/h (0 Bft) S-SO 0,00 h 0 W/m² -2,1 °C -0,8 °C 0,1 km/h (0 Bft)
29.02.2024 01:00 22,1 °C -1,3 °C 52 % 92 % 1021,2 hPa 0,0 l/m² 1,6 km/h (1 Bft) S-SO 0,00 h 0 W/m² -2,4 °C -1,3 °C 2,8 km/h (1 Bft)
29.02.2024 02:00 22,0 °C -1,6 °C 52 % 92 % 1020,7 hPa 0,0 l/m² 0,3 km/h (0 Bft) S-SO 0,00 h 0 W/m² -2,7 °C -1,6 °C 0,9 km/h (0 Bft)
29.02.2024 03:00 22,1 °C -2,0 °C 51 % 93 % 1019,9 hPa 0,0 l/m² 0,5 km/h (0 Bft) S-SO 0,00 h 0 W/m² -3,0 °C -2,0 °C 1,3 km/h (1 Bft)
29.02.2024 04:00 22,1 °C -2,1 °C 51 % 93 % 1019,4 hPa 0,0 l/m² 1,1 km/h (0 Bft) S-SO 0,00 h 0 W/m² -3,1 °C -2,1 °C 1,6 km/h (1 Bft)
29.02.2024 05:00 22,1 °C -2,4 °C 51 % 93 % 1019,0 hPa 0,0 l/m² 0,3 km/h (0 Bft) S-SO 0,00 h 0 W/m² -3,3 °C -2,4 °C 0,6 km/h (0 Bft)
29.02.2024 06:00 22,2 °C -2,4 °C 49 % 93 % 1018,8 hPa 0,0 l/m² 1,7 km/h (1 Bft) S-SO 0,00 h 5 W/m² -3,4 °C -2,4 °C 2,8 km/h (1 Bft)
29.02.2024 07:00 22,0 °C -2,0 °C 46 % 93 % 1018,6 hPa 0,0 l/m² 0,5 km/h (0 Bft) S-SO 0,27 h 40 W/m² -2,9 °C -2,0 °C 1,3 km/h (1 Bft)
29.02.2024 08:00 22,2 °C 0,3 °C 46 % 93 % 1018,4 hPa 0,0 l/m² 0,2 km/h (0 Bft) S-SO 1,00 h 171 W/m² -0,7 °C 0,3 °C 0,4 km/h (0 Bft)
29.02.2024 09:00 22,7 °C 3,0 °C 46 % 90 % 1018,2 hPa 0,0 l/m² 0,0 km/h (0 Bft) S-SO 1,00 h 285 W/m² 1,5 °C 3,0 °C 0,1 km/h (0 Bft)
29.02.2024 10:00 23,4 °C 6,9 °C 46 % 82 % 1017,6 hPa 0,0 l/m² 14,6 km/h (3 Bft) S-SO 1,00 h 445 W/m² 4,1 °C 1,8 °C 20,0 km/h (4 Bft)
29.02.2024 11:00 23,8 °C 8,4 °C 46 % 76 % 1017,0 hPa 0,0 l/m² 16,1 km/h (3 Bft) S 1,00 h 512 W/m² 4,4 °C 2,8 °C 21,5 km/h (4 Bft)
29.02.2024 12:00 24,0 °C 9,4 °C 45 % 73 % 1016,1 hPa 0,0 l/m² 14,9 km/h (3 Bft) S-SO 1,00 h 544 W/m² 4,8 °C 4,5 °C 19,8 km/h (3 Bft)
29.02.2024 13:00 24,2 °C 10,0 °C 45 % 71 % 1015,1 hPa 0,0 l/m² 13,2 km/h (3 Bft) S-SO 1,00 h 493 W/m² 5,0 °C 6,0 °C 17,9 km/h (3 Bft)
29.02.2024 14:00 24,0 °C 10,3 °C 46 % 70 % 1014,0 hPa 0,0 l/m² 12,5 km/h (2 Bft) S-SO 1,00 h 381 W/m² 5,0 °C 6,7 °C 16,9 km/h (3 Bft)
29.02.2024 15:00 23,8 °C 10,4 °C 47 % 69 % 1013,1 hPa 0,0 l/m² 11,3 km/h (2 Bft) SO 1,00 h 284 W/m² 4,9 °C 7,4 °C 15,7 km/h (3 Bft)
29.02.2024 16:00 23,5 °C 10,2 °C 47 % 71 % 1012,2 hPa 0,0 l/m² 8,4 km/h (2 Bft) SO 1,00 h 134 W/m² 5,2 °C 8,8 °C 12,1 km/h (2 Bft)
29.02.2024 17:00 23,2 °C 8,4 °C 47 % 77 % 1011,5 hPa 0,0 l/m² 6,3 km/h (2 Bft) O-SO 0,03 h 21 W/m² 4,7 °C 8,0 °C 9,1 km/h (2 Bft)
29.02.2024 18:00 23,0 °C 6,5 °C 48 % 82 % 1011,1 hPa 0,0 l/m² 5,7 km/h (2 Bft) O 0,00 h 0 W/m² 3,6 °C 6,5 °C 7,6 km/h (2 Bft)
29.02.2024 19:00 22,8 °C 5,0 °C 48 % 86 % 1010,5 hPa 0,0 l/m² 4,0 km/h (1 Bft) O 0,00 h 0 W/m² 2,9 °C 5,0 °C 5,9 km/h (2 Bft)
29.02.2024 20:00 22,8 °C 3,8 °C 49 % 87 % 1010,1 hPa 0,0 l/m² 4,1 km/h (1 Bft) O-NO 0,00 h 0 W/m² 1,9 °C 3,8 °C 5,4 km/h (2 Bft)
29.02.2024 21:00 22,7 °C 2,4 °C 49 % 90 % 1009,7 hPa 0,0 l/m² 6,9 km/h (2 Bft) O 0,00 h 0 W/m² 0,9 °C 1,3 °C 8,4 km/h (2 Bft)
29.02.2024 22:00 22,6 °C 2,6 °C 49 % 91 % 1009,1 hPa 0,0 l/m² 8,3 km/h (2 Bft) O 0,00 h 0 W/m² 1,3 °C 0,5 °C 10,1 km/h (2 Bft)
29.02.2024 23:00 22,5 °C 1,6 °C 49 % 92 % 1008,6 hPa 0,0 l/m² 1,1 km/h (0 Bft) O 0,00 h 0 W/m² 0,4 °C 1,6 °C 2,1 km/h (1 Bft)
01.03.2024 00:00 22,4 °C 0,9 °C 49 % 93 % 1008,2 hPa 0,0 l/m² 0,4 km/h (0 Bft) N 0,00 h 0 W/m² -0,2 °C 0,9 °C 0,8 km/h (0 Bft)
01.03.2024 01:00 22,3 °C 0,3 °C 49 % 93 % 1007,8 hPa 0,0 l/m² 0,0 km/h (0 Bft) N 0,00 h 0 W/m² -0,7 °C 0,3 °C 0,0 km/h (0 Bft)
01.03.2024 02:00 22,2 °C -0,2 °C 49 % 93 % 1007,3 hPa 0,0 l/m² 1,4 km/h (1 Bft) N 0,00 h 0 W/m² -1,2 °C -0,2 °C 2,0 km/h (1 Bft)
01.03.2024 03:00 22,3 °C -0,2 °C 48 % 93 % 1006,9 hPa 0,0 l/m² 0,4 km/h (0 Bft) N 0,00 h 0 W/m² -1,1 °C -0,2 °C 0,9 km/h (0 Bft)
01.03.2024 04:00 22,3 °C -0,6 °C 48 % 94 % 1006,6 hPa 0,0 l/m² 0,5 km/h (0 Bft) N 0,00 h 0 W/m² -1,5 °C -0,6 °C 0,9 km/h (0 Bft)
01.03.2024 05:00 22,3 °C -0,7 °C 48 % 94 % 1006,5 hPa 0,0 l/m² 0,4 km/h (0 Bft) N 0,00 h 0 W/m² -1,5 °C -0,7 °C 0,8 km/h (0 Bft)
01.03.2024 06:00 22,4 °C -0,7 °C 48 % 94 % 1007,0 hPa 0,0 l/m² 0,5 km/h (0 Bft) N 0,00 h 5 W/m² -1,6 °C -0,7 °C 0,9 km/h (0 Bft)
01.03.2024 07:00 22,4 °C -0,7 °C 48 % 94 % 1007,5 hPa 0,0 l/m² 0,0 km/h (0 Bft) N 0,28 h 38 W/m² -1,5 °C -0,7 °C 0,0 km/h (0 Bft)
01.03.2024 08:00 22,4 °C 1,0 °C 47 % 94 % 1007,4 hPa 0,0 l/m² 0,0 km/h (0 Bft) N 1,00 h 133 W/m² 0,2 °C 1,0 °C 0,0 km/h (0 Bft)
01.03.2024 09:00 22,6 °C 3,3 °C 47 % 94 % 1007,5 hPa 0,0 l/m² 0,1 km/h (0 Bft) N 1,00 h 211 W/m² 2,4 °C 3,3 °C 0,2 km/h (0 Bft)
01.03.2024 10:00 22,6 °C 6,0 °C 48 % 91 % 1007,3 hPa 0,0 l/m² 4,9 km/h (1 Bft) S-SW 1,00 h 232 W/m² 4,7 °C 5,9 °C 6,5 km/h (2 Bft)
01.03.2024 11:00 22,5 °C 7,3 °C 48 % 88 % 1007,3 hPa 0,0 l/m² 3,4 km/h (1 Bft) S-SW 1,00 h 262 W/m² 5,5 °C 7,3 °C 5,0 km/h (1 Bft)
01.03.2024 12:00 22,4 °C 8,8 °C 50 % 84 % 1007,0 hPa 0,0 l/m² 5,0 km/h (1 Bft) S 1,00 h 289 W/m² 6,3 °C 8,5 °C 6,9 km/h (2 Bft)
01.03.2024 13:00 22,4 °C 9,6 °C 49 % 82 % 1006,9 hPa 0,0 l/m² 7,6 km/h (2 Bft) S-SO 1,00 h 269 W/m² 6,7 °C 8,5 °C 10,5 km/h (2 Bft)
01.03.2024 14:00 22,4 °C 10,0 °C 50 % 82 % 1006,8 hPa 0,0 l/m² 6,6 km/h (2 Bft) S-SO 1,00 h 198 W/m² 7,0 °C 9,5 °C 9,3 km/h (2 Bft)
01.03.2024 15:00 22,2 °C 10,1 °C 49 % 81 % 1006,7 hPa 0,0 l/m² 6,2 km/h (2 Bft) SO 0,98 h 131 W/m² 7,0 °C 9,8 °C 9,0 km/h (2 Bft)
01.03.2024 16:00 22,1 °C 9,7 °C 50 % 83 % 1006,6 hPa 0,0 l/m² 5,1 km/h (1 Bft) O-SO 0,80 h 70 W/m² 7,0 °C 9,7 °C 7,2 km/h (2 Bft)
01.03.2024 17:00 22,0 °C 9,0 °C 50 % 85 % 1006,7 hPa 0,0 l/m² 1,8 km/h (1 Bft) O-SO 0,00 h 19 W/m² 6,5 °C 9,0 °C 3,0 km/h (1 Bft)
01.03.2024 18:00 21,8 °C 7,6 °C 50 % 87 % 1006,8 hPa 0,0 l/m² 0,5 km/h (0 Bft) O-SO 0,00 h 0 W/m² 5,6 °C 7,6 °C 1,3 km/h (1 Bft)
01.03.2024 19:00 21,7 °C 7,0 °C 51 % 89 % 1006,7 hPa 0,0 l/m² 2,0 km/h (1 Bft) O-SO 0,00 h 0 W/m² 5,3 °C 7,0 °C 3,4 km/h (1 Bft)
01.03.2024 20:00 21,9 °C 6,6 °C 52 % 90 % 1006,7 hPa 0,0 l/m² 0,7 km/h (0 Bft) O-NO 0,00 h 0 W/m² 5,2 °C 6,6 °C 1,5 km/h (1 Bft)
01.03.2024 21:00 22,2 °C 6,1 °C 52 % 91 % 1006,6 hPa 0,2 l/m² 2,1 km/h (1 Bft) O-NO 0,00 h 0 W/m² 4,8 °C 6,1 °C 3,7 km/h (1 Bft)
01.03.2024 22:00 22,1 °C 4,9 °C 51 % 91 % 1006,3 hPa 0,0 l/m² 0,4 km/h (0 Bft) O-NO 0,00 h 0 W/m² 3,6 °C 4,9 °C 1,1 km/h (0 Bft)
01.03.2024 23:00 21,9 °C 3,6 °C 51 % 93 % 1006,1 hPa 0,0 l/m² 1,7 km/h (1 Bft) O-NO 0,00 h 0 W/m² 2,6 °C 3,5 °C 2,6 km/h (1 Bft)
02.03.2024 00:00 21,9 °C 3,7 °C 51 % 94 % 1005,9 hPa 0,0 l/m² 0,4 km/h (0 Bft) O-NO 0,00 h 0 W/m² 2,8 °C 3,7 °C 0,8 km/h (0 Bft)
02.03.2024 01:00 21,9 °C 3,2 °C 51 % 94 % 1005,6 hPa 0,0 l/m² 0,0 km/h (0 Bft) O-NO 0,00 h 0 W/m² 2,4 °C 3,2 °C 0,0 km/h (0 Bft)
02.03.2024 02:00 21,8 °C 3,0 °C 51 % 94 % 1005,5 hPa 0,0 l/m² 0,1 km/h (0 Bft) O-NO 0,00 h 0 W/m² 2,1 °C 3,0 °C 0,2 km/h (0 Bft)
02.03.2024 03:00 21,8 °C 2,9 °C 51 % 95 % 1005,4 hPa 0,0 l/m² 0,1 km/h (0 Bft) O-NO 0,00 h 0 W/m² 2,2 °C 2,9 °C 0,3 km/h (0 Bft)
02.03.2024 04:00 21,8 °C 3,4 °C 51 % 95 % 1005,5 hPa 0,0 l/m² 0,0 km/h (0 Bft) O-NO 0,00 h 0 W/m² 2,6 °C 3,4 °C 0,0 km/h (0 Bft)
02.03.2024 05:00 21,7 °C 3,7 °C 51 % 95 % 1005,6 hPa 0,0 l/m² 2,1 km/h (1 Bft) O-NO 0,00 h 0 W/m² 3,0 °C 3,7 °C 3,4 km/h (1 Bft)
02.03.2024 06:00 21,7 °C 3,8 °C 51 % 95 % 1005,8 hPa 0,0 l/m² 0,8 km/h (0 Bft) O-NO 0,00 h 0 W/m² 3,1 °C 3,8 °C 1,9 km/h (1 Bft)
02.03.2024 07:00 21,7 °C 4,4 °C 51 % 95 % 1006,2 hPa 0,0 l/m² 2,7 km/h (1 Bft) O-NO 0,40 h 45 W/m² 3,7 °C 4,4 °C 4,3 km/h (1 Bft)
02.03.2024 08:00 21,8 °C 6,1 °C 51 % 95 % 1006,4 hPa 0,0 l/m² 1,9 km/h (1 Bft) O-NO 1,00 h 68 W/m² 5,3 °C 6,1 °C 3,5 km/h (1 Bft)
02.03.2024 09:00 21,9 °C 7,6 °C 52 % 92 % 1006,6 hPa 0,0 l/m² 0,5 km/h (0 Bft) O-NO 0,98 h 131 W/m² 6,4 °C 7,6 °C 1,0 km/h (0 Bft)
02.03.2024 10:00 21,8 °C 9,3 °C 49 % 88 % 1007,0 hPa 0,0 l/m² 6,6 km/h (2 Bft) O-SO 1,02 h 226 W/m² 7,4 °C 8,5 °C 9,4 km/h (2 Bft)
02.03.2024 11:00 21,9 °C 10,5 °C 49 % 84 % 1007,0 hPa 0,0 l/m² 9,5 km/h (2 Bft) O-SO 1,00 h 291 W/m² 7,9 °C 8,5 °C 12,9 km/h (3 Bft)
02.03.2024 12:00 22,0 °C 11,4 °C 50 % 81 % 1006,7 hPa 0,0 l/m² 9,7 km/h (2 Bft) SO 1,00 h 340 W/m² 8,3 °C 9,4 °C 13,1 km/h (3 Bft)
02.03.2024 13:00 22,2 °C 12,7 °C 52 % 77 % 1006,4 hPa 0,0 l/m² 8,4 km/h (2 Bft) S-SO 1,00 h 439 W/m² 8,8 °C 11,4 °C 11,4 km/h (2 Bft)
02.03.2024 14:00 22,2 °C 13,8 °C 52 % 72 % 1006,0 hPa 0,0 l/m² 8,5 km/h (2 Bft) SO 1,00 h 379 W/m² 8,9 °C 12,5 °C 12,1 km/h (2 Bft)
02.03.2024 15:00 22,3 °C 14,0 °C 52 % 70 % 1005,7 hPa 0,0 l/m² 10,6 km/h (2 Bft) O-SO 1,00 h 303 W/m² 8,7 °C 11,8 °C 14,2 km/h (3 Bft)
02.03.2024 16:00 22,3 °C 13,5 °C 51 % 70 % 1005,5 hPa 0,0 l/m² 11,7 km/h (2 Bft) O-SO 1,00 h 176 W/m² 8,3 °C 10,8 °C 15,3 km/h (3 Bft)
02.03.2024 17:00 22,1 °C 11,8 °C 51 % 75 % 1005,4 hPa 0,0 l/m² 9,9 km/h (2 Bft) O-NO 0,18 h 32 W/m² 7,6 °C 9,8 °C 13,7 km/h (3 Bft)
02.03.2024 18:00 22,1 °C 9,9 °C 52 % 82 % 1005,8 hPa 0,0 l/m² 7,0 km/h (2 Bft) O-NO 0,00 h 0 W/m² 7,0 °C 9,3 °C 10,7 km/h (2 Bft)
02.03.2024 19:00 22,1 °C 8,1 °C 52 % 87 % 1006,1 hPa 0,0 l/m² 6,3 km/h (2 Bft) O-NO 0,00 h 0 W/m² 6,0 °C 7,8 °C 9,0 km/h (2 Bft)
02.03.2024 20:00 22,0 °C 7,7 °C 52 % 89 % 1006,1 hPa 0,0 l/m² 6,3 km/h (2 Bft) O-NO 0,00 h 0 W/m² 6,0 °C 7,4 °C 9,7 km/h (2 Bft)
02.03.2024 21:00 21,8 °C 6,6 °C 52 % 90 % 1005,7 hPa 0,0 l/m² 3,5 km/h (1 Bft) O-NO 0,00 h 0 W/m² 5,1 °C 6,6 °C 5,4 km/h (2 Bft)
02.03.2024 22:00 21,8 °C 5,4 °C 52 % 92 % 1005,2 hPa 0,0 l/m² 0,6 km/h (0 Bft) O 0,00 h 0 W/m² 4,2 °C 5,4 °C 1,1 km/h (1 Bft)
02.03.2024 23:00 21,9 °C 5,1 °C 52 % 93 % 1005,0 hPa 0,0 l/m² 0,9 km/h (0 Bft) O-NO 0,00 h 0 W/m² 4,0 °C 5,1 °C 1,5 km/h (1 Bft)
03.03.2024 00:00 21,8 °C 3,9 °C 52 % 93 % 1004,9 hPa 0,0 l/m² 1,5 km/h (1 Bft) W 0,00 h 0 W/m² 3,0 °C 3,9 °C 3,0 km/h (1 Bft)
03.03.2024 01:00 21,8 °C 3,9 °C 52 % 94 % 1004,6 hPa 0,0 l/m² 4,2 km/h (1 Bft) O-NO 0,00 h 0 W/m² 3,1 °C 3,9 °C 6,3 km/h (2 Bft)
03.03.2024 02:00 21,8 °C 2,8 °C 52 % 94 % 1004,2 hPa 0,0 l/m² 0,0 km/h (0 Bft) O-NO 0,00 h 0 W/m² 1,9 °C 2,8 °C 0,0 km/h (0 Bft)
03.03.2024 03:00 21,8 °C 1,8 °C 52 % 94 % 1004,0 hPa 0,0 l/m² 0,2 km/h (0 Bft) SW 0,00 h 0 W/m² 0,9 °C 1,8 °C 0,6 km/h (0 Bft)
03.03.2024 04:00 21,8 °C 1,0 °C 52 % 94 % 1003,9 hPa 0,0 l/m² 0,1 km/h (0 Bft) SW 0,00 h 0 W/m² 0,1 °C 1,0 °C 0,2 km/h (0 Bft)
03.03.2024 05:00 21,7 °C 0,4 °C 52 % 95 % 1003,8 hPa 0,0 l/m² 0,0 km/h (0 Bft) SW 0,00 h 0 W/m² -0,3 °C 0,4 °C 0,1 km/h (0 Bft)
03.03.2024 06:00 21,7 °C -0,1 °C 52 % 95 % 1003,8 hPa 0,0 l/m² 0,2 km/h (0 Bft) SW 0,00 h 6 W/m² -0,8 °C -0,1 °C 0,5 km/h (0 Bft)
03.03.2024 07:00 21,7 °C -0,2 °C 51 % 95 % 1003,8 hPa 0,0 l/m² 0,2 km/h (0 Bft) SW 0,20 h 32 W/m² -0,9 °C -0,2 °C 0,6 km/h (0 Bft)
03.03.2024 08:00 21,7 °C 0,8 °C 51 % 95 % 1003,8 hPa 0,0 l/m² 0,2 km/h (0 Bft) SW 1,00 h 119 W/m² 0,1 °C 0,8 °C 0,8 km/h (0 Bft)
03.03.2024 09:00 22,2 °C 3,2 °C 52 % 96 % 1004,1 hPa 0,0 l/m² 0,1 km/h (0 Bft) SW 1,00 h 246 W/m² 2,6 °C 3,2 °C 0,5 km/h (0 Bft)
03.03.2024 10:00 22,9 °C 8,3 °C 49 % 93 % 1003,8 hPa 0,0 l/m² 3,1 km/h (1 Bft) SW 1,00 h 445 W/m² 7,2 °C 8,0 °C 4,7 km/h (1 Bft)
03.03.2024 11:00 23,2 °C 11,5 °C 47 % 82 % 1003,8 hPa 0,0 l/m² 7,8 km/h (2 Bft) O 1,00 h 493 W/m² 8,5 °C 10,5 °C 11,2 km/h (2 Bft)
03.03.2024 12:00 23,3 °C 13,5 °C 47 % 75 % 1003,4 hPa 0,0 l/m² 10,0 km/h (2 Bft) O-NO 1,00 h 522 W/m² 9,1 °C 11,5 °C 14,1 km/h (3 Bft)
03.03.2024 13:00 23,1 °C 14,3 °C 45 % 72 % 1002,9 hPa 0,0 l/m² 13,0 km/h (3 Bft) O 1,00 h 543 W/m² 9,2 °C 11,2 °C 17,7 km/h (3 Bft)
03.03.2024 14:00 22,8 °C 14,2 °C 48 % 72 % 1002,6 hPa 0,0 l/m² 14,0 km/h (3 Bft) O 1,00 h 399 W/m² 9,2 °C 10,7 °C 19,2 km/h (3 Bft)
03.03.2024 15:00 22,7 °C 14,3 °C 48 % 71 % 1002,7 hPa 0,0 l/m² 12,8 km/h (3 Bft) O-NO 1,00 h 273 W/m² 9,1 °C 11,2 °C 17,5 km/h (3 Bft)
03.03.2024 16:00 22,7 °C 14,1 °C 50 % 70 % 1002,6 hPa 0,0 l/m² 10,0 km/h (2 Bft) O-NO 1,00 h 126 W/m² 8,6 °C 12,2 °C 16,2 km/h (3 Bft)
03.03.2024 17:00 22,4 °C 12,4 °C 48 % 73 % 1002,9 hPa 0,0 l/m² 7,2 km/h (2 Bft) O-NO 0,17 h 29 W/m² 7,8 °C 11,7 °C 12,0 km/h (2 Bft)
03.03.2024 18:00 22,1 °C 9,7 °C 49 % 80 % 1003,4 hPa 0,0 l/m² 5,2 km/h (1 Bft) O-NO 0,00 h 0 W/m² 6,4 °C 9,6 °C 8,3 km/h (2 Bft)
03.03.2024 19:00 22,1 °C 8,2 °C 51 % 84 % 1003,8 hPa 0,0 l/m² 2,8 km/h (1 Bft) O-NO 0,00 h 0 W/m² 5,6 °C 8,2 °C 4,6 km/h (1 Bft)
03.03.2024 20:00 22,3 °C 6,0 °C 53 % 88 % 1003,9 hPa 0,0 l/m² 0,1 km/h (0 Bft) O-NO 0,00 h 0 W/m² 4,2 °C 6,0 °C 0,4 km/h (0 Bft)
03.03.2024 21:00 22,6 °C 4,9 °C 53 % 91 % 1004,2 hPa 0,0 l/m² 0,1 km/h (0 Bft) O-NO 0,00 h 0 W/m² 3,5 °C 4,9 °C 0,3 km/h (0 Bft)
03.03.2024 22:00 22,3 °C 4,3 °C 53 % 92 % 1004,4 hPa 0,0 l/m² 0,4 km/h (0 Bft) O-NO 0,00 h 0 W/m² 3,1 °C 4,3 °C 0,7 km/h (0 Bft)
03.03.2024 23:00 22,2 °C 3,5 °C 53 % 93 % 1004,6 hPa 0,0 l/m² 0,4 km/h (0 Bft) S-SO 0,00 h 0 W/m² 2,4 °C 3,5 °C 0,9 km/h (0 Bft)
Min-Datum _ 28.02.24 29.02.24 03.03.24 28.02.24 03.03.24 - 03.03.24 - - - 29.02.24 27.02.24 03.03.24
_ Min-Zeit 08:00 06:17 13:03 14:05 16:17 - 23:01 - - - 06:17 12:00 23:01
Minimum _ 21,2 °C -2,7 °C 43 % 63 % 1002,5 hPa - 0,0 km/h (0 Bft) - - - -3,7 °C -4,6 °C 0,0 km/h (0 Bft)
Max-Datum _ 29.02.24 03.03.24 03.03.24 03.03.24 28.02.24 01.03.24 29.02.24 - 01.03.24 03.03.24 03.03.24 03.03.24 27.02.24
_ Max-Zeit 14:01 13:39 23:01 10:01 12:55 21:26 10:38 - 15:10 12:14 13:08 15:56 12:28
Maximum _ 24,2 °C 15,0 °C 53 % 97 % 1022,8 hPa 0,2 l/m² 22,6 km/h
S-SO (4 Bft)
- 0,10 h 677 W/m² 9,8 °C 14,7 °C 33,8 km/h
NW (5 Bft)
Durchschnitt _ 22,1 °C 5,1 °C 50 % 86 % 1010,7 hPa #0,4 l/m² 4,4 km/h (1 Bft) O-NO #62:46 h 99 W/m² 2,9 °C 4,3 °C 6,9 km/h (2 Bft)
© 2009 Mathias Hoßbach